Simultaneous Nadir Overpasses (SNOs) Predictions

Prediction of SNOs between NOAA-19 and NPP Satellite Orbit:

Table of predicted SNOs for the next 14.0 days since TLE Epoch: 10/7/2012
Index Date (NOAA-19) Time (NOAA-19) NOAA-19 Lat,Lon Date (NPP) Time (NPP) NPP Lat,Lon Distance(km) Time Diff (sec)
1 10/09/2012 11:25:03 -80.75, 139.68 10/09/2012 11:26:03 -80.75, 139.59 1.59 60
2 10/09/2012 12:16:02 80.73, -52.76 10/09/2012 12:16:47 80.74, -52.79 0.56 45
3 10/09/2012 13:07:06 -80.71, 114.87 10/09/2012 13:07:31 -80.72, 114.86 0.32 25
4 10/09/2012 13:58:05 80.70, -77.57 10/09/2012 13:58:15 80.70, -77.52 0.77 10
5 10/09/2012 14:49:08 -80.66, 90.40 10/09/2012 14:48:58 -80.66, 90.46 1.01 10
6 10/09/2012 15:40:07 80.64,-102.04 10/09/2012 15:39:42 80.64,-101.93 2.09 25
7 10/09/2012 16:31:11
